Simultaneous Nadir Overpasses (SNOs) Predictions

Prediction of SNOs between GOES-16 and LANDSAT-8 Satellite Orbit:

Table of predicted SNOs for the next 14.0 days since TLE Epoch: 3/18/2023
Index Date Time (GOES-16) GOES-16 Lat,Lon LANDSAT-8 Lat,Lon Distance(km) Time Diff (sec)
1 03/18/2023 03:24:32 -0.06, -75.20 0.00, -77.74 283.48 80
2 03/20/2023 03:09:29 -0.06, -75.21 0.03, -74.66 62.09 80
3 03/22/2023 02:57:17 -0.06, -75.23 0.68, -71.70 400.96 80
4 03/22/2023 15:21:11 0.06, -75.25 0.41, -76.86 182.94 80
5 03/24/2023 15:06:17 0.06, -75.28 -0.22, -73.90 156.98 80
6 03/25/2023 03:30:21 -0.06, -75.27 -0.86, -79.09 433.82 80
7 03/26/2023 14:54:03 0.06, -75.31 -0.86, -70.94 497.34 80
8 03/27/2023 03:18:07 -0.06, -75.31 -0.20, -76.13 93.38 80
9 03/29/2023 03:03:12 -0.05, -75.34 0.41, -73.16 247.70 80
10 03/29/2023 15:27:07 0.05, -75.37 0.66, -78.32 335.84 80
11 03/31/2023 15:12:12 0.05, -75.41 0.02, -75.36 6.57 80
